RH
80 85 82 79 80 75 90 92 91 96 95 92 91 86 86 84 85 83 78 86 85 87 85 83 82 83 82 80 76 72 69 69 69 69 70 70 70 70
76 81 82 78 77 84 92 92 92 89 91 87 92 89 84 77 83 82 76 86 85 84 84 85 83 82 81 81 81 78 76 74 72 71 69 69 68 66
76 77 74 75 79 86 92 90 90 94 94 86 91 92 89 89 83 79 82 76 79 84 84 85 85 84 82 81 81 80 76 73 70 68 64 61 59 56
72 76 75 75 84 85 88 88 92 93 93 94 96 97 95 91 86 82 75 66 69 79 83 86 86 83 80 79 77 78 76 74 70 63 60 56 57 58
68 72 74 76 81 82 85 89 93 96 97 95 96 96 95 93 90 86 83 83 65 84 87 86 84 83 81 72 69 73 75 75 76 76 71 69 68 64
70 71 70 72 77 79 88 95 96 98 98 98 96 97 95 97 92 94 92 86 80 57 68 69 75 77 71 71 72 71 72 72 74 76 77 79 79 72
70 70 71 72 81 82 86 96 97 98 97 97 97 99 99 99 97 92 92 92 88 79 58 49 57 57 62 74 66 72 74 77 79 77 75 74 74 74
72 73 88 97 99 100 100 98 95 94 93 98 97 98 95 94 94 96 97 96 87 67 63 57 52 58 53 54 58 68 71 70 73 73 70 70 73 76
84 84 94 96 100 95 99 98 98 97 100 98 98 99 98 97 94 94 95 96 94 77 63 68 68 67 57 37 59 65 56 61 65 70 72 73 74 78
90 89 88 98 99 99 97 96 98 98 98 94 96 99 97 96 95 97 98 96 86 70 60 86 68 71 66 60 62 67 67 67 62 64 68 73 76 79
99 99 99 99 98 94 94 97 97 98 98 97 97 96 95 96 96 96 96 92 96 73 63 68 66 69 69 70 59 55 66 64 67 70 69 70 74 80
98 98 97 97 97 95 94 93 95 92 86 83 85 88 83 70 70 82 74 88 89 79 65 80 66 64 81 66 70 70 71 68 66 62 61 72 76 95
97 98 98 97 96 94 90 86 86 91 96 92 92 93 95 91 87 82 77 86 89 85 68 79 84 79 83 76 67 70 67 62 69 78 71 70 73 81
96 96 98 95 94 94 93 93 93 93 92 93 93 91 88 80 68 64 63 59 59 59 58 65 89 80 78 75 70 63 66 70 73 75 78 74 77 83
95 96 95 93 92 93 94 95 97 96 96 95 92 90 72 61 57 63 63 57 61 66 51 69 79 68 72 76 73 70 71 64 68 72 80 90 91 94
95 95 95 94 93 96 94 91 90 92 94 96 96 96 83 84 81 77 81 80 88 84 69 71 73 77 77 70 68 73 69 79 68 70 73 76 78 86
96 96 96 96 95 95 96 96 96 96 95 96 95 89 81 78 83 88 88 89 94 82 73 68 68 71 69 66 72 64 66 66 65 73 81 89 84 84
95 96 97 97 96 96 96 96 95 93 88 81 85 82 85 88 86 82 86 93 90 83 80 73 73 71 66 60 54 64 66 78 82 74 75 84 83 81
95 96 96 96 96 94 94 94 92 84 80 84 87 89 89 83 86 84 82 82 84 77 70 65 66 68 74 81 71 56 71 67 69 72 76 84 88 83
94 94 95 95 94 93 92 91 85 88 87 85 93 94 95 93 90 84 82 91 85 77 69 60 64 68 89 89 84 73 53 72 76 82 84 82 76 77
94 94 95 95 95 90 92 90 93 92 95 95 93 91 95 95 94 94 93 89 88 76 76 70 64 67 60 66 80 75 69 55 57 69 86 87 83 84
94 93 93 90 88 85 90 91 89 89 88 88 94 95 95 94 94 93 94 94 86 84 76 66 59 60 68 73 76 76 73 69 60 59 67 72 93 95
94 92 86 86 83 84 82 88 89 93 92 92 94 93 95 95 93 93 94 92 84 83 77 76 73 66 66 64 70 74 76 73 69 72 74 69 93 96
Wind_Speed
10 11 10 8 6 8 5 5 5 5 7 5 6 9 9 8 9 8 8 13 13 12 11 11 10 10 9 9 9 10 10 12 13 13 14 16 17 19
9 11 10 8 9 8 6 5 6 8 9 5 5 5 7 8 9 6 7 12 12 11 12 12 11 9 8 7 8 9 10 12 12 12 13 15 17 19
12 12 14 13 10 9 7 7 8 7 11 8 3 5 5 6 5 5 5 6 7 13 13 14 13 12 10 9 9 8 10 11 11 12 12 14 16 18
16 15 16 11 13 12 9 12 10 11 10 12 6 6 7 7 5 7 7 7 7 16 17 15 13 13 11 10 9 9 10 10 10 11 12 13 13 15
17 16 16 15 14 12 12 11 9 8 8 8 8 6 6 6 6 6 8 5 4 10 13 14 13 13 10 9 11 11 12 11 11 10 10 10 12 15
17 17 18 16 14 14 12 11 9 9 11 11 11 6 5 3 6 7 5 4 4 5 8 9 12 12 10 10 12 12 12 13 11 9 10 11 12 15
18 18 16 18 17 17 11 11 12 10 9 11 10 3 5 4 11 6 6 3 2 2 2 3 4 4 4 8 10 14 13 11 11 11 12 13 14 15
16 14 8 9 10 13 15 15 12 13 16 12 11 11 13 9 6 5 4 3 2 1 1 3 3 2 2 2 7 7 7 9 10 12 12 13 15 16
10 10 6 6 9 6 11 10 11 14 7 5 6 3 4 2 6 7 6 5 4 4 3 2 2 2 2 3 10 8 7 9 10 10 11 14 15 16
8 10 11 6 5 9 9 11 10 9 9 8 11 10 9 8 8 5 4 1 3 3 3 3 3 4 3 3 8 7 7 3 6 10 13 15 16 17
5 5 6 8 12 18 12 12 10 10 15 23 21 20 20 17 10 5 2 3 2 1 2 2 2 3 3 2 4 10 4 7 10 10 13 16 17 15
7 8 11 11 13 13 13 12 12 7 8 9 8 11 10 8 9 4 4 3 1 3 4 3 4 3 4 2 1 4 4 7 12 15 22 20 18 4
8 8 7 19 19 20 17 10 11 10 9 7 6 4 5 5 4 3 5 4 3 1 3 3 2 3 2 4 3 3 6 9 9 8 11 16 17 9
11 9 12 23 24 24 17 21 17 9 6 6 4 4 4 5 5 6 6 4 3 2 4 3 2 1 4 7 8 4 5 6 7 8 7 11 16 13
9 18 25 26 26 20 22 18 10 7 6 6 5 5 6 6 6 4 4 3 2 4 4 4 3 5 5 8 9 9 10 9 9 10 7 4 5 5
17 12 14 16 14 14 12 10 8 6 7 6 5 5 3 3 3 3 2 2 1 2 4 7 7 6 7 8 8 9 8 8 9 10 10 9 8 8
14 10 8 6 9 9 9 6 6 6 7 5 5 4 4 4 3 2 2 2 1 5 6 5 6 6 6 8 8 9 10 10 9 10 8 8 8 8
8 9 8 7 7 8 7 7 6 8 6 5 4 4 4 4 4 4 3 3 5 5 6 6 6 7 8 7 11 10 8 6 7 9 9 9 11 9
8 9 10 9 9 8 7 7 7 4 5 5 5 4 4 3 4 4 4 5 5 6 7 7 7 8 10 10 6 14 11 9 9 9 8 7 11 11
9 8 9 8 8 7 7 6 6 5 5 3 2 2 3 3 3 4 4 3 5 6 7 8 7 7 8 10 11 9 16 10 9 11 10 9 11 19
9 10 8 7 8 7 6 5 4 4 3 3 4 4 3 3 2 2 3 5 5 6 7 7 8 13 9 10 10 10 8 18 19 13 10 10 10 11
8 8 7 7 6 6 5 5 5 5 5 4 3 3 3 2 2 2 2 3 5 5 7 7 9 8 8 10 12 13 11 10 17 23 23 19 9 6
7 7 7 7 7 6 7 6 5 4 3 3 3 3 3 2 2 3 2 3 5 6 7 8 8 8 9 10 13 12 16 14 11 12 11 18 25 29
Wind_Direction
214 214 222 229 234 240 217 201 201 229 229 233 219 206 208 211 222 219 204 194 188 182 190 195 200 205 209 223 238 250 261 267 271 277 282 286 289 292
219 220 224 228 228 228 217 211 224 229 245 209 201 199 202 212 186 177 183 168 172 174 185 186 194 193 202 215 234 247 258 266 272 278 284 287 290 292
226 231 237 227 225 224 222 222 231 215 232 242 207 198 187 175 168 184 144 168 173 184 187 184 187 193 203 218 231 246 255 265 276 280 283 288 291 295
223 227 234 230 227 228 224 226 220 217 223 239 204 213 210 211 181 185 174 198 196 201 194 184 180 195 205 215 235 244 247 253 259 271 277 284 289 295
228 229 229 228 232 233 232 227 216 211 213 230 226 208 204 184 177 192 194 209 200 169 175 176 181 203 212 221 231 235 237 237 239 244 257 271 280 289
228 226 230 230 232 235 230 218 212 214 219 228 234 205 190 190 191 185 196 209 190 192 192 184 190 203 210 222 234 237 239 239 243 244 250 256 263 275
227 228 229 230 218 226 221 212 212 223 230 243 242 177 176 165 197 185 202 158 213 244 179 173 158 177 220 237 244 244 245 247 242 236 241 256 268 277
226 227 225 209 216 224 214 215 216 220 239 223 229 218 210 198 173 150 115 120 164 343 308 285 132 186 194 253 270 225 201 217 226 236 259 277 279 277
222 227 215 214 209 207 83 95 70 72 79 222 235 20 69 47 115 95 66 62 25 319 27 280 1 286 243 256 269 246 230 237 254 262 270 273 271 272
204 216 228 177 129 124 104 89 79 48 66 78 98 100 83 64 84 60 86 129 202 206 121 236 241 257 263 249 287 292 298 265 276 281 278 277 276 277
68 67 103 112 129 132 123 113 94 81 68 85 84 82 77 75 68 95 137 132 285 247 15 237 234 278 257 255 281 293 280 299 291 295 296 288 279 278
84 80 94 114 124 137 130 131 111 110 109 98 98 93 95 107 114 131 155 118 101 357 5 14 5 15 309 264 24 342 304 308 311 300 286 284 280 256
113 106 98 104 105 102 100 102 105 116 95 100 106 110 122 119 107 83 54 59 56 354 68 56 337 347 281 302 279 317 319 299 282 272 289 295 290 239
121 114 112 106 99 98 95 104 103 95 86 80 85 102 98 70 56 57 55 41 17 328 323 333 251 271 286 290 290 298 299 287 295 283 281 276 287 245
103 107 102 98 95 88 92 90 83 90 92 81 79 58 51 51 43 37 24 328 335 347 322 310 279 284 266 272 283 292 301 292 275 272 271 268 277 260
100 90 91 90 83 87 74 66 68 51 65 77 66 60 50 50 48 46 28 346 310 287 285 274 261 253 264 264 275 283 281 278 295 284 280 278 275 266
104 89 90 92 95 88 88 80 75 63 65 56 52 53 54 48 29 21 6 356 339 309 301 297 297 282 271 274 277 275 279 277 276 280 290 302 295 266
94 104 99 91 92 98 97 95 81 69 57 64 54 47 41 30 22 2 355 340 316 309 306 311 319 315 305 287 286 289 292 319 331 322 315 310 297 299
76 80 86 78 70 69 71 77 87 82 71 61 56 46 37 19 3 352 335 327 327 328 326 327 323 313 303 293 322 331 319 311 305 301 296 289 287 287
72 75 76 77 79 77 72 72 70 67 68 55 53 50 38 24 16 351 341 336 332 329 314 304 302 316 328 308 304 299 294 288 285 287 285 280 281 288
67 65 62 63 71 69 68 67 60 65 51 41 45 38 34 33 6 352 335 332 326 317 316 313 317 316 310 311 308 305 304 299 304 301 298 297 300 295
64 69 65 61 62 60 58 42 44 38 38 39 35 34 28 19 356 337 331 320 316 314 312 313 313 312 313 307 309 309 306 304 300 293 284 276 274 264
47 59 64 54 50 48 47 44 45 29 27 22 26 23 16 4 342 319 318 320 320 322 316 312 321 324 315 310 305 305 303 303 302 303 292 286 277 266